www.pogodaiklimat.ru

Погода и климат >> Архив погоды >> Россия >> Коми >> Петрунь


АРХИВ ПОГОДЫ в Петруни

Время (UTC), дата Ветер
(напр.,м/с)
 
Видим.   Явления Облачность Т
(С)
Тd
(С)
f
(%)
Тe
(С)
Тes
(С)
Комфортность P
(гПа)
Po
(гПа)
Тmin
(С)
Tmax
(С)
R
(мм)
R24
(мм)
S
(см)
21 11.06 С 3 40 км 6/0
[Ac As]
+1.9 -1.8 76 -2 -2 1006.5 998.8
00 12.06 СВ 1 45 км 8/0
[Ac As]
+2.6 -2.0 72 +1 +2 1005.8 998.2
03 12.06 С 2 40 км 10/10 800 м
[Sc]
+3.5 -2.3 66 +1 +1 1005.3 997.7 +0.9
06 12.06 СЗ 3 45 км 10/10 900 м
[Sc]
+3.7 -2.5 64 0 0 1005.0 997.4
09 12.06 З 4 45 км 10/10 1050 м
[Sc]
+5.3 -1.4 62 +2 +2 1004.8 997.3
12 12.06 СЗ 4
{10}
35 км в посл. час ливневой дождь 9/9 1000 м
[Cb cap]
+5.9 +2.1 77 +2 +3 1004.6 997.1
15 12.06 СЗ 5
{11}
40 км {ливн. осадки} 10/10 800 м
[Cb cap]
+4.5 -0.4 70 -0 -0 1005.0 997.4 +6.9 0.4
18 12.06 СЗ 3
{10}
35 км {ливн. осадки} 10/10 600 м
[Sc]
+2.0 -1.1 80 -2 -2 1005.3 997.5
21 12.06 З 4 6000 м слаб. ливневой снег 10/10 330 м
[Cb cap]
+1.0 -0.5 90 -4 -4 1004.7 997.0
00 13.06 З 5 7000 м слаб. снег 10/10 270 м
[Frnb Ns]
+0.8 -0.3 92 -5 -5 1003.1 995.4
03 13.06 З 5-10
{10}
4800 м слаб. снег 10/10 330 м
[Frnb Ns]
+0.8 -0.1 94 -5 -5 1001.4 993.7 +0.3 1
06 13.06 СЗ 4
{13}
27 км в посл. час ливневой снег 9/9 400 м
[Cb cap]
+2.6 +1.0 89 -2 -2 1002.3 994.7
09 13.06 СЗ 5-10
{11}
35 км в посл. час крупа {ливн. осадки} 6/4 600 м
[Cb cap Ci fib]
+5.2 -0.5 67 +1 +4 1003.8 996.2
12 13.06 СЗ 6-11
{14}
40 км {ливн. осадки} 9/9 1000 м
[Cb cap]
+4.6 -3.1 57 -0 0 1004.8 997.2
15 13.06 С 6-11
{13}
35 км 9/9 800 м
[Cb cap]
+3.7 -2.1 66 -2 -1 1004.9 997.3 +6.4 0.6
18 13.06 СЗ 5-10
{12}
35 км {ливн. осадки} 10/10 630 м
[Cb cap]
+1.5 -1.8 79 -4 -4 1004.9 997.2
21 13.06 СЗ 4
{11}
29 км {ливн. осадки} 10/10 600 м
[Cb cap]
+0.4 -1.4 88 -5 -5 1004.9 997.2
00 14.06 С 4 5000 м слаб. ливневой снег 10/10 240 м
[Cb cap]
-0.3 -1.1 94 -6 -6 1005.3 997.6
03 14.06 СЗ 6-10
{10}
30 км {ливн. осадки} 9/9 700 м
[Cb cap]
+1.6 -1.6 79 -4 -4 1005.7 998.0 -0.3 1
06 14.06 СЗ 4
{10}
35 км {ливн. осадки} 9/9 1020 м
[Cb cap]
+4.1 -1.5 67 0 +1 1006.1 998.5
09 14.06 З 5-10
{11}
35 км в посл. час ливневой дождь 9/8 660 м
[Cb cap Ci fib]
+4.8 +0.6 74 0 +1 1006.9 999.3
12 14.06 З 5
{11}
40 км в посл. час ливневой дождь 9/8 700 м
[Cb cap Ac As]
+6.6 +1.7 71 +3 +3 1006.3 998.7
15 14.06 СЗ 6-11
{11}
40 км 9/4 600 м
[Cb cap Ci sp]
+4.6 -0.7 68 -0 0 1006.3 998.7 +7.1 0.1
18 14.06 З 2
{11}
30 км в посл. час ливневой дождь 10/10 750 м
[Cb cap]
+3.2 +0.3 81 0 0 1005.5 997.9
21 14.06 ЮЗ 3 8000 м слаб. дождь 10/3 300 м
[Frnb As op]
+3.0 +1.4 89 -1 -1 1003.6 996.0
00 15.06 З 3 6000 м слаб. дождь 10/10 270 м
[Frnb Ns]
+2.6 +1.6 93 -2 -2 1001.9 994.3
03 15.06 ЮЗ 4 7000 м слаб. дождь 10/10 270 м
[Frnb Ns]
+2.8 +1.5 91 -2 -2 1000.7 993.1 +2.5 1
06 15.06 ЮЗ 4 28 км в посл. час ливневой дождь 9/9 600 м
[Cb cap]
+5.3 +2.8 84 +1 +2 999.9 992.4
09 15.06 З 4
{10}
35 км {ливн. осадки} 10/3 600 м
[Cb cap Ac As]
+4.7 +1.6 80 +1 +2 1000.6 993.0
12 15.06 СЗ 3 35 км {ливн. осадки} 9/3 600 м
[Cb cap Ac As]
+6.6 +0.6 65 +4 +5 1001.1 993.6
15 15.06 СЗ 3 35 км 8/1 600 м
[Sc diur, vesp Ac As Ci sp]
+5.9 -0.9 62 +3 +4 1001.5 993.9 +7.1 1
18 15.06 СЗ 3 40 км 9/0
[Ac As]
+4.2 -1.4 67 +1 +1 1001.7 994.1
21 15.06 З 2 35 км 9/9 1440 м
[Sc]
+2.4 -1.4 76 -1 -1 1001.5 993.9
00 16.06 З 3 45 км 8/0
[Ac As Cc]
+2.0 -1.0 80 -2 -2 1001.4 993.8
03 16.06 ЮЗ 4 40 км 10/10 930 м
[Sc]
+3.2 -1.6 71 -1 -1 1000.5 992.9 +1.4
06 16.06 ЮЗ 4 45 км 10/10 700 м
[Cb cap]
+5.3 +0.6 72 +1 +1 999.4 991.9
09 16.06 ЮЗ 4 35 км {ливн. осадки} 10/10 700 м
[Cb cap]
+7.1 +1.8 69 +4 +4 998.2 990.8
12 16.06 ЮЗ 4
{10}
30 км {ливн. осадки} 10/3 300 м
[Cb cap Ac und]
+8.1 +3.2 71 +5 +6 997.3 989.9
15 16.06 ЮЗ 5-10
{10}
6000 м слаб. ливневой дождь 10/10 330 м
[Cb cap]
+6.5 +4.8 89 +2 +2 996.8 989.3 +8.8 1
18 16.06 ЮЗ 4
{10}
30 км {ливн. осадки} 10/10 960 м
[Cb cap]
+5.1 +4.0 93 +1 +1 996.6 989.1
21 16.06 З 3 8000 м слаб. дождь 10/8 300 м
[Frnb As op]
+2.5 +1.5 93 -2 -2 996.9 989.3
00 17.06 ЮЗ 4 8000 м слаб. дождь 10/8 420 м
[Frnb As op]
+2.8 +1.8 93 -2 -2 996.7 989.1
03 17.06 ЮЗ 5 7000 м слаб. дождь 10/8 400 м
[Frnb As op]
+2.9 +1.7 92 -3 -2 996.7 989.1 +2.4 4
06 17.06 З 4 28 км в посл. час ливневой дождь 10/10 720 м
[Cb cap]
+4.3 +2.3 87 -0 -0 997.3 989.8
09 17.06 З 4
{10}
35 км {ливн. осадки} 10/10 700 м
[Cb cap]
+6.1 +2.3 77 +2 +2 998.2 990.7
12 17.06 ЮЗ 4
{10}
40 км {ливн. осадки} 9/4 600 м
[Cb cap Ac As]
+6.3 +1.9 73 +3 +4 999.2 991.7
15 17.06 З 5-11
{11}
7000 м слаб. ливневой дождь 10/10 570 м
[Cb cap]
+5.5 +2.4 80 +1 +1 999.9 992.4 +7.1 2
18 17.06 З 4
{11}
6000 м слаб. дождь 10/10 330 м
[Frnb Ns]
+2.8 +1.4 90 -2 -2 999.8 992.2
21 17.06 ЮЗ 3 30 км {дождь} 10/10 600 м
[Sc]
+2.9 +1.4 90 -1 -1 998.7 991.1
00 18.06 З 5
{10}
27 км {дождь} 10/10 480 м
[St]
+2.0 +0.3 88 -4 -4 998.3 990.7
03 18.06 З 4
{10}
29 км {дождь} 9/9 600 м
[Sc]
+3.3 -0.0 79 -1 -1 998.8 991.2 +1.3 1
06 18.06 З 4
{12}
30 км в посл. час ливневой снег {дождь} 8/5 600 м
[Cb cap Ac As]
+3.4 +2.0 91 -1 +1 998.7 991.1
09 18.06 З 5-10
{11}
35 км 8/4 600 м
[Cb cap Ac As]
+7.2 -0.7 57 +4 +6 999.1 991.7
12 18.06 З 5
{14}
7000 м слаб. ливневой дождь 10/10 360 м
[Cb cap]
+5.7 +1.0 72 +1 +1 1000.7 993.2
15 18.06 З 4
{12}
7000 м слаб. ливневой дождь 10/10 630 м
[Cb cap]
+4.5 +1.8 83 0 0 1002.0 994.4 +7.2 1
18 18.06 З 4
{10}
25 км в посл. час ливневой дождь 10/10 360 м
[Cb cap]
+3.1 +1.8 91 -2 -2 1002.3 994.7

 

Местоположение метеостанции Петрунь (Коми, Россия): широта 66.43 долгота 60.77 высота над уровнем моря 62 м.

В архиве по умолчанию представлена погода в Петруни за последнюю неделю. Архивные данные за месяц целиком и за предыдущие месяцы, начиная с января 2011 года, Вы можете получить, выбрав интересующий диапазон дат из раскрывающегося списка и нажав кнопку "Ввод!".


*Определитесь, кто Вы:
робот инопланетянин человек

Внимание! Время в таблицах - всемирное. Для получения местного времени необходимо прибавить поправку, которая равна 3 ч.

Смотрите также архив погоды в соседних городах и на ближайших метеорологических станциях:

Погода в Харуте (Ненецкий АО, Россия) (72 км)
Погода в Усинске (Коми, Россия) (159 км)
Погода в Елецкой (Коми, Россия) (160 км)
Погода в Хорей-Вере (Ненецкий АО, Россия) (163 км)
Погода в Усть-Усе (Коми, Россия) (180 км)
Погода в Воркуте (Коми, Россия) (182 км)
Погода в Мужах (Ямало-Ненецкий АО, Россия) (214 км)
Погода в Печоре (Коми, Россия) (222 км)
Погода в Харпе (Ямало-Ненецкий АО, Россия) (225 км)
Погода в Саранпауле (Ханты-Мансийский АО, Россия) (239 км)

Пояснения к столбцам:

Ветер - указаны скорость ветра в м/с - средняя за 10 мин, порывы в срок и между сроками (в фигурных скобках) и направление, откуда дует ветер: С - северный, СВ - северо-восточный, В - восточный, ЮВ - юго-восточный, Ю - южный, ЮЗ - юго-западный, З - западный, СЗ - северо-западный.
Видимость - горизонтальная дальность видимости в метрах или километрах. При видимости от 1 до 10 км при отсутствии осадков обычно наблюдается дымка, при ухудшении видимости до 1 км и менее - туман. В сухую погоду видимость может ухудшаться дымом, пылью или мглою.
Явления - указаны атмосферные явления, наблюдавшиеся в срок или в последний час перед сроком; фигурными скобками обозначены явления, наблюдавшиеся между сроками (за 1-3 часа до срока); квадратными скобками обозначены град или гололедные отложения с указанием их диаметра в мм.
Облачность - указаны через наклонную черту общая и нижняя облачность в баллах и высота нижней границы облаков в метрах; квадратными скобками обозначены формы облаков: Ci - перистые, Cs - перисто-слоистые, Cc - перисто-кучевые, Ac - высококучевые, As - высокослоистые, Sc - слоисто-кучевые, Ns - слоисто-дождевые, Cu - кучевые, Cb - кучево-дождевые. Подробнее классификацию облаков см. в Атласе облаков (PDF).
T - Температура воздуха - температура, измеренная на высоте 2 м над землей.
Td - Температура точки росы - температура, при понижении до которой содержащийся в воздухе водяной пар достигнет насыщения.
f - Относительная влажность воздуха - влажноcть воздуха, измеренная на высоте 2 м над землей.
Te - Эффективная температура - температура, которую ощущает одетый по сезону человек в тени. Характеристика душности погоды. При расчете учитывается влияние влажности воздуха и скорости ветра на теплоощущения человека.
Tes - Эффективная температура на солнце - температура, которую ощущает человек, с поправкой на солнечный нагрев. Характеристика знойности погоды. Зависит от высоты солнца над горизонтом, облачности и скорости ветра. Ночью, в пасмурную погоду, а также при ветре 12 м/с и более поправка равна нулю.
P - Атмосферное давление - приведенное к уровню моря атмосферное давление.
Po - Атмосферное давление - измеренное на уровне метеостанции атмосферное давление.
Tmin - Минимальная температура - минимум температуры воздуха на высоте 2 м над землей.
Tmax - Максимальная температура - максимум температуры воздуха на высоте 2 м над землей.
R - Количество осадков - Количество выпавших осадков за период времени, мм. При наведении курсора мыши на число - период времени, за который выпало указанное количество осадков.
R24 - Количество осадков - Количество выпавших осадков за 24 часа, мм.
S - Снежный покров - Высота снежного покрова, см. При наведении курсора мыши на число - состояние снежного покрова и степень покрытия местности в баллах.